Change the Weather History Date:

Saturday, September 14, 2013

  Actual Average Record
Temperature  
Mean Temperature 76 °F -  
Max Temperature 91 °F - - ()
Min Temperature 60 °F - - ()
Cooling Degree Days 10    
Growing Degree Days 26 (Base 50)    
Moisture  
Dew Point 51 °F    
Average Humidity 46    
Maximum Humidity 71    
Minimum Humidity 18    
Precipitation  
Precipitation 0.00 in - - ()
Sea Level Pressure  
Sea Level Pressure 29.92 in    
Wind  
Wind Speed 2 mph ()    
Max Wind Speed 4 mph    
Max Gust Speed -    
T = Trace of Precipitation, MM = Missing Value Source: Averaged Metar Reports

Daily Weather History Graph

Daily Weather History Graph

Search for Another Location

Airport or City:

Trip Planner

Search our weather history database for the weather conditions in past years. The results will help you decide how hot, cold, wet, or windy it might be!

Date:

Astronomy

Sep. 14, 2013 Rise Set
Actual Time 6:21 AM MST 7:00 PM MST
Civil Twilight 5:49 AM MST 7:32 PM MST
Nautical Twilight 5:11 AM MST 8:10 PM MST
Astronomical Twilight 4:31 AM MST 8:50 PM MST
Moon 4:04 PM MST (9/14) 12:36 AM MST (9/14)
Length of Visible Light 13h 42m
Length of Day
12h 38m
Waxing Gibbous, 73% of the Moon is Illuminated
Sep 14
Waxing Gibbous
Sep 19
Full
Sep 26
Last Quarter
Oct 4
New
Oct 11
First Quarter

Hourly Weather History & Observations

Time (MST) Temp. Heat Index Dew Point Humidity Pressure Visibility Wind Dir Wind Speed Gust Speed Precip Events Conditions
12:00 AM 67.6 °F - 51.4 °F 56% 29.85 in - East 1.2 mph - N/A   Unknown
1:00 AM 66.9 °F - 51.8 °F 58% 29.87 in - North 3.5 mph - N/A   Unknown
2:00 AM 67.5 °F - 50.9 °F 55% 29.88 in - NNE 3.5 mph - N/A   Unknown
3:00 AM 63.5 °F - 52.9 °F 68% 29.90 in - WNW 1.2 mph - N/A   Unknown
4:00 AM 64.4 °F - 48.6 °F 56% 29.91 in - East 2.3 mph - N/A   Unknown
5:00 AM 62 °F - 49 °F 53% 29.92 in - NE 2.3 mph - -  
5:00 AM 62.4 °F - 49.3 °F 62% 29.92 in - NE 2.3 mph - N/A   Unknown
6:00 AM 61.0 °F - 50.7 °F 69% 29.95 in - SSE 1.2 mph - N/A   Unknown
7:00 AM 61.3 °F - 51.8 °F 71% 29.97 in - North 1.2 mph - N/A   Unknown
8:00 AM 64.2 °F - 53.4 °F 68% 29.99 in - WSW 1.2 mph - N/A   Unknown
9:00 AM 66.6 °F - 53.8 °F 63% 29.99 in - SW 2.3 mph - N/A   Unknown
10:00 AM 70.3 °F - 55.4 °F 59% 29.99 in - WSW 2.3 mph - N/A   Unknown
11:00 AM 75 °F - 55 °F 40% 29.99 in - SW 1.2 mph - -  
11:00 AM 75.4 °F - 55.2 °F 49% 29.99 in - SW 1.2 mph - N/A   Unknown
12:00 PM 79.9 °F - 55.2 °F 43% 29.97 in - WSW 2.3 mph - N/A   Unknown
1:00 PM 84.2 °F - 52.3 °F 33% 29.94 in - WSW 3.5 mph - N/A   Unknown
2:00 PM 88.0 °F - 50.0 °F 27% 29.92 in - WSW 3.5 mph - N/A   Unknown
3:00 PM 90.0 °F - 48.7 °F 24% 29.90 in - West 3.5 mph - N/A   Unknown
4:00 PM 90.0 °F - 48.2 °F 24% 29.89 in - West 3.5 mph - N/A   Unknown
5:00 PM 88 °F - 50 °F 18% 29.88 in - WNW 3.5 mph - -  
5:00 PM 87.8 °F - 50.2 °F 27% 29.88 in - WNW 3.5 mph - N/A   Unknown
6:00 PM 84.4 °F 83.1 °F 54.5 °F 36% 29.88 in - West 2.3 mph - N/A   Unknown
7:00 PM 78.3 °F - 52.5 °F 41% 29.88 in - North 2.3 mph - N/A   Unknown
8:00 PM 76.3 °F - 47.1 °F 36% 29.89 in - NNE 3.5 mph - N/A   Unknown
9:00 PM 75.4 °F - 45.1 °F 34% 29.91 in - North 2.3 mph - N/A   Unknown
10:00 PM 72.7 °F - 45.7 °F 38% 29.91 in - NE 3.5 mph - N/A   Unknown
11:00 PM 71 °F - 47 °F 31% 29.92 in - North 2.3 mph - -  
11:00 PM 70.7 °F - 46.9 °F 43% 29.92 in - North 2.3 mph - N/A   Unknown